Date String (YYYY-MM-DD hh:mm:ss) UTC,Instrument flags,Ambient pressure (hPa),Sample flow (lpm),Bypass flow (lpm),Sample temperature (°C),Ambient temperature (°C),ASC tube jacket temperature (°C),LED temperature (°C),Box temperature (°C),Sample RH (%),Span deviation,Mass concentration (μg/m³),Mass concentration (μg/m³),Mass concentration (μg/m³)
DateTimeUTC,F1_M11,P_M11,Q1_M11,Q2_M11,T1_M11,T2_M11,T3_M11,T4_M11,T5_M11,U1_M11,ZSPAN_M11,X0_M11,X2_M11,X1_M11
2023-03-07 07:00:00,,0824.6,4.99,0.00,22.5,20.8,00.0,31.3,24.0,16.1,0000.0,0011.47,0008.38,0008.07
2023-03-07 07:01:00,,0824.4,5.00,0.00,22.5,20.7,00.0,31.3,24.0,16.2,0000.0,0011.52,0008.40,0008.10
2023-03-07 07:02:00,,0824.4,4.99,0.00,22.4,20.6,00.0,31.2,24.0,16.2,0000.0,0011.47,0008.42,0008.13
2023-03-07 07:03:00,,0824.4,5.01,0.00,22.4,20.6,00.0,31.2,24.0,16.2,0000.0,0011.62,0008.48,0008.17
2023-03-07 07:04:00,,0824.4,5.00,0.00,22.4,20.6,00.0,31.2,24.0,16.2,-001.2,0011.72,0008.53,0008.19
2023-03-07 07:05:00,,0824.5,5.00,0.00,22.4,20.6,00.0,31.2,23.9,16.3,-000.4,0011.73,0008.54,0008.20
2023-03-07 07:06:00,,0824.5,5.00,0.00,22.3,20.5,00.0,31.2,24.0,16.3,0000.0,0011.46,0008.51,0008.21
2023-03-07 07:07:00,,0824.6,5.00,0.00,22.3,20.5,00.0,31.2,24.0,16.3,0000.0,0011.29,0008.49,0008.22
2023-03-07 07:08:00,,0824.7,5.00,0.00,22.3,20.5,00.0,31.2,23.9,16.3,0000.0,0011.44,0008.51,0008.22
2023-03-07 07:09:00,,0824.5,5.01,0.00,22.3,20.5,00.0,31.1,23.9,16.3,0000.0,0011.41,0008.49,0008.21
2023-03-07 07:10:00,,0824.5,5.01,0.00,22.3,20.9,00.0,31.1,24.0,16.3,0000.0,0011.27,0008.53,0008.25
2023-03-07 07:11:00,,0824.5,5.01,0.00,22.4,22.0,00.0,31.1,24.2,16.3,0000.0,0010.71,0008.57,0008.29
2023-03-07 07:12:00,,0824.4,5.01,0.00,22.5,23.0,00.0,31.1,24.5,16.2,0000.0,0010.67,0008.60,0008.31
2023-03-07 07:13:00,,0824.4,5.00,0.00,22.6,22.8,00.0,31.2,24.5,16.1,0000.0,0010.74,0008.64,0008.32
2023-03-07 07:14:00,,0824.5,4.98,0.00,22.6,22.4,00.0,31.2,24.4,16.1,0000.0,0010.79,0008.61,0008.30
2023-03-07 07:15:00,,0824.4,4.99,0.00,22.6,22.0,00.0,31.2,24.3,16.1,0000.0,0010.87,0008.53,0008.25
2023-03-07 07:16:00,,0824.5,4.99,0.00,22.6,21.7,00.0,31.2,24.3,16.1,0000.0,0011.00,0008.45,0008.19
2023-03-07 07:17:00,,0824.5,5.00,0.00,22.6,21.5,00.0,31.2,24.3,16.1,0000.0,0011.48,0008.40,0008.13
2023-03-07 07:18:00,,0824.4,5.00,0.00,22.5,21.3,00.0,31.2,24.2,16.1,0000.0,0011.77,0008.36,0008.07
2023-03-07 07:19:00,,0824.4,5.01,0.00,22.5,21.2,00.0,31.2,24.2,16.1,0000.0,0011.83,0008.30,0008.02
2023-03-07 07:20:00,,0824.5,4.99,0.00,22.5,21.0,00.0,31.2,24.1,16.1,0000.0,0012.08,0008.29,0007.98
2023-03-07 07:21:00,,0824.5,5.01,0.00,22.5,20.9,00.0,31.2,24.1,16.1,0000.0,0012.06,0008.21,0007.91
2023-03-07 07:22:00,,0824.6,5.01,0.00,22.4,20.8,00.0,31.2,24.1,16.1,0000.0,0012.03,0008.15,0007.85
2023-03-07 07:23:00,,0824.4,5.00,0.00,22.4,20.7,00.0,31.2,24.1,16.1,0000.0,0012.05,0008.11,0007.81
2023-03-07 07:24:00,,0824.5,5.00,0.00,22.4,20.7,00.0,31.2,24.0,16.1,0000.0,0012.35,0008.09,0007.77
2023-03-07 07:25:00,,0824.4,5.00,0.00,22.4,20.7,00.0,31.2,24.0,16.1,0000.0,0012.32,0008.06,0007.74
2023-03-07 07:26:00,,0824.5,5.02,0.00,22.4,21.6,00.0,31.2,24.2,16.1,0000.0,0012.18,0008.03,0007.73
2023-03-07 07:27:00,,0824.4,5.00,0.00,22.6,22.7,00.0,31.2,24.5,16.0,0000.0,0012.22,0008.03,0007.73
2023-03-07 07:28:00,,0824.4,5.01,0.00,22.7,23.0,00.0,31.2,24.6,15.9,0000.0,0012.13,0008.05,0007.74
2023-03-07 07:29:00,,0824.7,4.99,0.00,22.7,22.6,00.0,31.3,24.6,15.9,0000.0,0012.26,0008.07,0007.75
2023-03-07 07:30:00,,0824.9,5.00,0.00,22.7,22.2,00.0,31.3,24.4,15.9,0000.0,0012.30,0008.09,0007.77
2023-03-07 07:31:00,,0824.9,5.01,0.00,22.6,21.8,00.0,31.3,24.3,15.9,0000.0,0012.24,0008.09,0007.77
2023-03-07 07:32:00,,0824.7,5.00,0.00,22.6,21.5,00.0,31.3,24.3,15.9,0000.0,0012.56,0008.10,0007.78
2023-03-07 07:33:00,,0824.5,4.99,0.00,22.6,21.3,00.0,31.3,24.3,15.9,0000.0,0012.57,0008.11,0007.80
2023-03-07 07:34:00,,0824.8,5.00,0.00,22.6,21.2,00.0,31.3,24.2,15.9,0000.0,0012.75,0008.13,0007.81
2023-03-07 07:35:00,,0824.5,5.01,0.00,22.6,21.1,00.0,31.3,24.2,15.9,0000.0,0012.66,0008.16,0007.83
2023-03-07 07:36:00,,0824.6,4.98,0.00,22.5,20.9,00.0,31.3,24.1,15.9,0000.0,0012.60,0008.20,0007.85
2023-03-07 07:37:00,,0824.7,5.00,0.00,22.5,20.8,00.0,31.3,24.1,16.0,0000.0,0012.64,0008.24,0007.88
2023-03-07 07:38:00,,0824.6,5.00,0.00,22.5,20.7,00.0,31.3,24.1,16.0,0000.0,0012.40,0008.25,0007.88
2023-03-07 07:39:00,,0824.4,5.00,0.00,22.4,20.9,00.0,31.3,24.1,16.0,0000.0,0012.21,0008.27,0007.90
2023-03-07 07:40:00,,0824.6,5.02,0.00,22.5,21.9,00.0,31.2,24.3,15.9,0000.0,0011.90,0008.29,0007.92
2023-03-07 07:41:00,,0824.6,5.01,0.00,22.6,22.9,00.0,31.2,24.6,15.9,0000.0,0011.71,0008.28,0007.93
2023-03-07 07:42:00,,0824.6,4.98,0.00,22.7,23.1,00.0,31.3,24.7,15.8,0000.0,0012.31,0008.31,0007.95
2023-03-07 07:43:00,,0824.5,4.99,0.00,22.7,22.6,00.0,31.3,24.6,15.7,0000.0,0012.21,0008.35,0007.97
2023-03-07 07:44:00,,0824.7,5.00,0.00,22.7,22.2,00.0,31.3,24.5,15.8,-000.0,0012.24,0008.36,0007.99
2023-03-07 07:45:00,,0824.7,5.00,0.00,22.7,21.8,00.0,31.4,24.4,15.8,-000.0,0012.22,0008.37,0008.00
2023-03-07 07:46:00,,0824.7,5.01,0.00,22.7,21.6,00.0,31.4,24.4,15.8,0000.0,0012.68,0008.40,0008.03
2023-03-07 07:47:00,,0824.7,5.00,0.00,22.7,21.4,00.0,31.4,24.3,15.8,0000.0,0013.12,0008.42,0008.05
2023-03-07 07:48:00,,0824.6,5.00,0.00,22.6,21.2,00.0,31.4,24.3,15.8,0000.0,0013.12,0008.45,0008.07
2023-03-07 07:49:00,,0824.6,4.99,0.00,22.6,21.1,00.0,31.4,24.3,15.8,0000.1,0013.09,0008.46,0008.09
2023-03-07 07:50:00,,0824.6,5.00,0.00,22.6,21.0,00.0,31.4,24.2,15.9,0000.1,0013.07,0008.49,0008.11
2023-03-07 07:51:00,,0824.6,4.99,0.00,22.6,20.9,00.0,31.3,24.2,15.9,-000.1,0012.98,0008.46,0008.12
2023-03-07 07:52:00,,0824.6,5.01,0.00,22.5,20.9,00.0,31.3,24.2,15.9,-000.3,0013.10,0008.49,0008.14
2023-03-07 07:53:00,,0824.6,5.00,0.00,22.5,20.8,00.0,31.3,24.2,16.0,-000.3,0012.49,0008.54,0008.18
2023-03-07 07:54:00,,0824.6,4.97,0.00,22.5,21.0,00.0,31.3,24.2,16.0,0000.1,0012.25,0008.56,0008.21
2023-03-07 07:55:00,,0824.7,4.99,0.00,22.6,22.0,00.0,31.3,24.4,15.9,0000.3,0012.24,0008.63,0008.27
2023-03-07 07:56:00,,0824.6,4.97,0.00,22.7,23.0,00.0,31.3,24.7,15.8,0000.6,0012.43,0008.69,0008.30
2023-03-07 07:57:00,,0824.7,5.02,0.00,22.8,23.1,00.0,31.3,24.7,15.7,-000.0,0011.78,0008.71,0008.33
2023-03-07 07:58:00,,0824.6,4.97,0.00,22.8,22.6,00.0,31.4,24.6,15.7,0000.0,0011.42,0008.71,0008.36
2023-03-07 07:59:00,,0824.6,5.02,0.00,22.8,22.2,00.0,31.4,24.5,15.7,-000.5,0011.31,0008.72,0008.38
